FW7988 Weather Reports


time (UTC)temp
F
wind
direction
speed
knots
gust
knots
rain 1hr
in
rain 24hr
in
rain mn
in
humidity
%
barometer
mb
20260506190446 74 323 9.6 13.0 0.00 0.00 0.00 77
20260506185942 76 283 4.3 11.3 0.00 0.00 0.00 75
20260506185439 77 13 6.1 8.7 0.00 0.00 0.00 74
20260506184937 79 327 4.3 6.1 0.00 0.00 0.00 74
20260506184433 80 77 2.6 6.1 0.00 0.00 0.00 70
20260506183931 79 66 0.0 1.7 0.00 0.00 0.00 72
20260506183426 79 338 2.6 6.1 0.00 0.00 0.00 71
20260506182923 78 57 1.7 4.3 0.00 0.00 0.00 71
20260506182421 77 344 0.9 4.3 0.00 0.00 0.00 74
20260506181918 77 69 1.7 6.1 0.00 0.00 0.00 72
20260506181416 76 309 1.7 4.3 0.00 0.00 0.00 73
20260506180912 76 36 2.6 4.3 0.00 0.00 0.00 74
20260506180408 77 39 4.3 5.2 0.00 0.00 0.00 73
20260506175905 76 27 4.3 6.1 0.00 0.00 0.00 75
20260506175402 74 46 0.9 2.6 0.00 0.00 0.00 75
20260506174859 75 87 2.6 7.0 0.00 0.00 0.00 76
20260506174356 75 47 2.6 4.3 0.00 0.00 0.00 74
20260506173854 74 32 1.7 4.3 0.00 0.00 0.00 73
20260506173350 72 38 0.9 1.7 0.00 0.00 0.00 77
20260506172848 71 9 1.7 5.2 0.00 0.00 0.00 78
20260506172344 71 72 6.1 7.8 0.00 0.00 0.00 78
20260506171842 70 30 3.5 6.1 0.00 0.00 0.00 79
20260506171338 71 62 7.0 8.7 0.00 0.00 0.00 78
20260506170836 70 66 2.6 8.7 0.00 0.00 0.00 80
20260506170331 69 352 1.7 5.2 0.00 0.00 0.00 80
20260506165826 69 47 4.3 6.1 0.00 0.00 0.00 79
20260506165323 68 340 2.6 6.1 0.00 0.00 0.00 80
20260506164819 68 33 4.3 8.7 0.00 0.00 0.00 79
20260506164316 66 359 3.5 5.2 0.00 0.00 0.00 83
20260506163813 66 29 6.1 7.0 0.00 0.00 0.00 82
20260506163308 66 7 5.2 7.0 0.00 0.00 0.00 85
20260506162804 66 348 6.1 8.7 0.00 0.00 0.00 85
20260506162306 65 316 4.3 5.2 0.00 0.00 0.00 87
20260506161759 65 341 7.8 14.8 0.00 0.00 0.00 87
20260506161256 65 348 10.4 12.2 0.00 0.00 0.00 87
20260506160754 66 359 9.6 13.0 0.00 0.00 0.00 86
20260506160250 67 315 8.7 18.2 0.00 0.00 0.00 86
20260506155749 69 328 14.8 17.4 0.00 0.00 0.00 85
20260506155245 73 344 9.6 15.6 0.00 0.00 0.00 82
20260506153358 77 60 0.9 2.6 0.00 0.00 0.00 85
20260506152855 77 34 1.7 2.6 0.00 0.00 0.00 85
20260506152352 77 76 1.7 1.7 0.00 0.00 0.00 85
20260506151851 77 78 1.7 1.7 0.00 0.00 0.00 85
20260506151347 77 74 0.0 1.7 0.00 0.00 0.00 85
20260506150845 77 140 0.0 0.0 0.00 0.00 0.00 84
20260506150341 77 119 2.6 2.6 0.00 0.00 0.00 84
20260506145838 77 115 0.0 2.6 0.00 0.00 0.00 85
20260506145334 77 139 1.7 6.1 0.00 0.00 0.00 85
20260506144832 76 179 2.6 6.1 0.00 0.00 0.00 85
20260506144328 76 165 1.7 4.3 0.00 0.00 0.00 86
20260506143827 76 155 2.6 5.2 0.00 0.00 0.00 87
20260506143323 75 202 1.7 4.3 0.00 0.00 0.00 88
20260506142822 76 148 4.3 7.8 0.00 0.00 0.00 87
20260506142319 76 138 2.6 7.0 0.00 0.00 0.00 86
20260506141817 76 150 1.7 6.1 0.00 0.00 0.00 88
20260506141315 75 178 3.5 5.2 0.00 0.00 0.00 89
20260506140813 75 152 1.7 4.3 0.00 0.00 0.00 89
20260506140309 75 150 1.7 1.7 0.00 0.00 0.00 90
20260506135807 75 162 0.9 1.7 0.00 0.00 0.00 90
20260506135305 75 58 0.0 0.9 0.00 0.00 0.00 91
20260506134800 74 94 0.0 0.9 0.00 0.00 0.00 91
20260506134256 74 121 3.5 6.1 0.00 0.00 0.00 91
20260506133753 74 110 3.5 5.2 0.00 0.00 0.00 92
20260506133250 74 151 2.6 2.6 0.00 0.00 0.00 92
20260506132746 74 144 3.5 5.2 0.00 0.00 0.00 92
20260506132244 74 113 2.6 4.3 0.00 0.00 0.00 91
20260506131742 74 155 4.3 6.1 0.00 0.00 0.00 91
20260506131237 74 159 2.6 4.3 0.00 0.00 0.00 92
20260506130734 74 114 1.7 2.6 0.00 0.00 0.00 92
20260506130231 74 123 2.6 2.6 0.00 0.00 0.00 92
20260506125729 74 126 2.6 5.2 0.00 0.00 0.00 92
20260506125227 74 115 2.6 4.3 0.00 0.00 0.00 93
20260506124725 74 106 2.6 5.2 0.00 0.00 0.00 93
20260506124223 74 109 1.7 4.3 0.00 0.00 0.00 93
20260506123720 74 92 1.7 4.3 0.00 0.00 0.00 93
20260506123219 74 137 1.7 2.6 0.00 0.00 0.00 92
20260506122715 74 130 2.6 4.3 0.00 0.00 0.00 92
20260506122212 74 134 0.0 0.0 0.00 0.00 0.00 92
20260506121710 74 114 0.0 0.0 0.00 0.00 0.00 92
20260506121206 74 111 0.0 0.0 0.00 0.00 0.00 92
20260506120704 74 106 0.0 0.0 0.00 0.00 0.00 92
20260506120201 74 88 0.0 0.0 0.00 0.00 0.00 92
20260506115700 74 79 0.0 0.0 0.00 0.00 0.00 92
20260506115158 74 86 0.0 0.0 0.00 0.00 0.00 92
20260506114654 74 82 0.0 0.0 0.00 0.00 0.00 92
20260506114152 74 78 0.0 0.0 0.00 0.00 0.00 91
20260506113651 74 120 0.0 0.0 0.00 0.00 0.00 91
20260506113148 74 123 0.0 0.0 0.00 0.00 0.00 91
20260506112643 74 163 0.0 0.0 0.00 0.00 0.00 91
20260506112142 74 170 0.0 0.0 0.00 0.00 0.00 91
20260506111639 74 199 0.0 1.7 0.00 0.00 0.00 91
20260506111137 74 183 0.9 0.9 0.00 0.00 0.00 91
20260506110634 74 187 0.0 0.9 0.00 0.00 0.00 91
20260506110131 74 178 0.9 1.7 0.00 0.00 0.00 91
20260506105627 74 200 0.9 0.9 0.00 0.00 0.00 91
20260506105125 74 185 1.7 1.7 0.00 0.00 0.00 91
20260506104623 74 178 0.0 0.0 0.00 0.00 0.00 91
20260506104120 74 187 0.9 1.7 0.00 0.00 0.00 91
20260506103617 74 169 1.7 2.6 0.00 0.00 0.00 91
20260506103114 74 197 4.3 6.1 0.00 0.00 0.00 91
20260506102612 74 184 4.3 5.2 0.00 0.00 0.00 91
20260506102109 74 221 6.1 7.0 0.00 0.00 0.00 91
20260506101606 74 196 2.6 2.6 0.00 0.00 0.00 91
20260506101102 74 183 6.1 7.0 0.00 0.00 0.00 91
20260506100601 74 182 2.6 6.1 0.00 0.00 0.00 91
20260506100059 74 179 4.3 7.8 0.00 0.00 0.00 91
20260506095557 74 188 3.5 5.2 0.00 0.00 0.00 91
20260506095054 74 174 3.5 5.2 0.00 0.00 0.00 92
20260506094551 74 191 2.6 6.1 0.00 0.00 0.00 92
20260506094049 74 189 1.7 2.6 0.00 0.00 0.00 92
20260506093547 74 179 2.6 6.1 0.00 0.00 0.00 92
20260506093044 74 188 2.6 5.2 0.00 0.00 0.00 93
20260506092542 73 211 2.6 6.1 0.00 0.00 0.00 93
20260506092038 73 204 4.3 7.0 0.00 0.00 0.00 93
20260506091537 73 174 1.7 7.0 0.00 0.00 0.00 93
20260506091034 73 225 6.1 7.8 0.00 0.00 0.00 93
20260506090532 73 187 4.3 7.0 0.00 0.00 0.00 93
20260506090028 74 176 6.1 7.8 0.00 0.00 0.00 92
20260506085525 74 185 5.2 9.6 0.00 0.00 0.00 92
20260506085021 74 220 6.1 12.2 0.00 0.00 0.00 91
20260506084518 74 205 4.3 7.8 0.00 0.00 0.00 91
20260506084014 74 195 2.6 7.0 0.00 0.00 0.00 91
20260506083511 74 159 6.1 7.0 0.00 0.00 0.00 91
20260506083009 74 176 4.3 8.7 0.00 0.00 0.00 91
20260506082506 74 188 4.3 7.0 0.00 0.00 0.00 91
20260506082001 74 166 7.0 12.2 0.00 0.00 0.00 91
20260506081500 74 183 6.1 11.3 0.00 0.00 0.00 91
20260506080957 74 169 6.1 9.6 0.00 0.00 0.00 91
20260506080454 74 184 5.2 8.7 0.00 0.00 0.00 91
20260506073437 75 172 4.3 8.7 0.00 0.00 0.00 89
20260506072935 75 191 4.3 8.7 0.00 0.00 0.00 89
20260506072432 75 181 7.0 9.6 0.00 0.00 0.00 89
20260506071930 75 185 7.8 12.2 0.00 0.00 0.00 89
20260506071427 75 188 7.0 13.9 0.00 0.00 0.00 89
20260506070924 75 135 7.0 12.2 0.00 0.00 0.00 89
20260506070421 75 177 7.0 8.7 0.00 0.00 0.00 88
20260506062358 75 197 7.8 9.6 0.00 0.00 0.00 88
20260506061854 75 181 7.8 9.6 0.00 0.00 0.00 88
20260506061351 75 176 14.8 18.2 0.00 0.00 0.00 88
20260506060849 75 193 5.2 9.6 0.00 0.00 0.00 88
20260506060347 75 185 6.1 8.7 0.00 0.00 0.00 88
20260506051318 75 191 4.3 12.2 0.00 0.00 0.00 89
20260506050816 75 196 4.3 7.8 0.00 0.00 0.00 89
20260506050314 75 166 4.3 7.0 0.00 0.00 0.00 89
20260506044804 76 181 5.2 7.8 0.00 0.00 0.00 89
20260506044301 76 186 0.9 6.1 0.00 0.00 0.00 89
20260506043759 76 192 3.5 7.0 0.00 0.00 0.00 89
20260506043256 76 148 6.1 8.7 0.00 0.00 0.00 88
20260506042755 76 172 4.3 9.6 0.00 0.00 0.00 88
20260506042253 75 165 6.1 8.7 0.00 0.00 0.00 89
20260506041751 75 151 6.1 12.2 0.00 0.00 0.00 89
20260506041248 75 135 4.3 8.7 0.00 0.00 0.00 89
20260506040745 75 137 5.2 7.8 0.00 0.00 0.00 89
20260506040242 75 130 3.5 8.7 0.00 0.00 0.00 89
20260506035739 75 158 5.2 7.8 0.00 0.00 0.00 89
20260506035236 75 163 4.3 6.1 0.00 0.00 0.00 89
20260506034733 75 125 1.7 4.3 0.00 0.00 0.00 89
20260506034230 75 165 2.6 6.1 0.00 0.00 0.00 88
20260506033727 76 163 2.6 7.0 0.00 0.00 0.00 88
20260506033224 76 146 2.6 7.0 0.00 0.00 0.00 88
20260506032721 76 162 2.6 8.7 0.00 0.00 0.00 87
20260506032218 76 189 5.2 7.0 0.00 0.00 0.00 87
20260506031714 76 176 6.1 7.8 0.00 0.00 0.00 87
20260506031212 76 184 4.3 6.1 0.00 0.00 0.00 86
20260506030710 76 132 3.5 7.0 0.00 0.00 0.00 86
20260506030207 76 171 8.7 11.3 0.00 0.00 0.00 86
20260506025704 77 187 4.3 7.8 0.00 0.00 0.00 85
20260506025200 77 170 2.6 7.8 0.00 0.00 0.00 85
20260506024657 77 138 1.7 7.0 0.00 0.00 0.00 84
20260506024154 77 205 4.3 7.8 0.00 0.00 0.00 83
20260506023650 78 160 3.5 7.8 0.00 0.00 0.00 83
20260506023147 78 190 7.0 8.7 0.00 0.00 0.00 82
20260506022644 78 160 2.6 7.0 0.00 0.00 0.00 81
20260506022142 78 149 4.3 6.1 0.00 0.00 0.00 81
20260506021640 78 183 1.7 6.1 0.00 0.00 0.00 81
20260506021136 78 133 2.6 8.7 0.00 0.00 0.00 80
20260506020633 78 155 0.9 5.2 0.00 0.00 0.00 80
20260506020131 78 164 2.6 6.1 0.00 0.00 0.00 80
20260506015628 78 161 5.2 7.8 0.00 0.00 0.00 80
20260506015125 79 130 5.2 9.6 0.00 0.00 0.00 80
20260506014623 79 138 3.5 6.1 0.00 0.00 0.00 79
20260506014118 79 134 2.6 4.3 0.00 0.00 0.00 79
20260506013617 79 125 1.7 6.1 0.00 0.00 0.00 79
20260506013113 79 145 4.3 6.1 0.00 0.00 0.00 79
20260506012609 79 148 5.2 7.0 0.00 0.00 0.00 78
20260506012106 80 133 2.6 6.1 0.00 0.00 0.00 78
20260506011604 80 124 3.5 5.2 0.00 0.00 0.00 77
20260506011059 80 141 2.6 5.2 0.00 0.00 0.00 77
20260506010554 80 148 2.6 5.2 0.00 0.00 0.00 76
20260506010050 81 161 1.7 6.1 0.00 0.00 0.00 76
20260506005547 81 140 2.6 4.3 0.00 0.00 0.00 75
20260506005043 81 157 1.7 2.6 0.00 0.00 0.00 75
20260506004541 82 134 4.3 5.2 0.00 0.00 0.00 74
20260506004037 82 161 1.7 1.7 0.00 0.00 0.00 74
20260506003534 82 147 1.7 2.6 0.00 0.00 0.00 73
20260506003030 82 140 1.7 4.3 0.00 0.00 0.00 73
20260506002526 82 143 1.7 4.3 0.00 0.00 0.00 72
20260506002022 82 163 3.5 5.2 0.00 0.00 0.00 71
20260506001518 82 170 1.7 4.3 0.00 0.00 0.00 71
20260506001016 82 162 2.6 5.2 0.00 0.00 0.00 71
20260506000513 82 202 6.1 7.0 0.00 0.00 0.00 71
20260506000010 82 194 2.6 11.3 0.00 0.00 0.00 70
20260505235508 82 188 6.1 7.8 0.00 0.00 0.00 70
20260505235004 83 177 6.1 9.6 0.00 0.00 0.00 69
20260505234502 83 182 6.1 8.7 0.00 0.00 0.00 69
20260505233958 83 217 4.3 6.1 0.00 0.00 0.00 70
20260505233456 83 211 3.5 7.0 0.00 0.00 0.00 70
20260505232953 83 188 9.6 11.3 0.00 0.00 0.00 69
20260505232451 83 187 6.1 9.6 0.00 0.00 0.00 69
20260505231948 83 179 2.6 7.8 0.00 0.00 0.00 70
20260505231445 82 170 4.3 8.7 0.00 0.00 0.00 70
20260505230944 83 192 4.3 9.6 0.00 0.00 0.00 69
20260505230441 83 183 5.2 8.7 0.00 0.00 0.00 69
20260505225937 83 194 7.0 11.3 0.00 0.00 0.00 69
20260505225434 83 146 5.2 8.7 0.00 0.00 0.00 70
20260505224930 83 188 6.1 11.3 0.00 0.00 0.00 69
20260505224427 83 157 3.5 6.1 0.00 0.00 0.00 69
20260505223924 83 178 1.7 9.6 0.00 0.00 0.00 69
20260505223421 83 174 6.1 11.3 0.00 0.00 0.00 68
20260505222918 83 160 9.6 13.9 0.00 0.00 0.00 68
20260505222414 83 213 5.2 8.7 0.00 0.00 0.00 69
20260505221910 84 194 2.6 9.6 0.00 0.00 0.00 69
20260505221408 84 223 5.2 8.7 0.00 0.00 0.00 68
20260505220904 84 201 7.0 7.8 0.00 0.00 0.00 66
20260505220401 84 175 4.3 8.7 0.00 0.00 0.00 68
20260505215859 85 146 8.7 11.3 0.00 0.00 0.00 65
20260505215357 85 170 1.7 6.1 0.00 0.00 0.00 66
20260505214855 84 178 4.3 7.8 0.00 0.00 0.00 67
20260505214352 84 167 3.5 13.0 0.00 0.00 0.00 67
20260505213849 84 168 7.8 13.9 0.00 0.00 0.00 67
20260505213347 84 162 7.8 13.9 0.00 0.00 0.00 66
20260505212843 84 231 7.8 13.9 0.00 0.00 0.00 65
20260505212340 84 183 7.0 9.6 0.00 0.00 0.00 65
20260505211836 84 249 6.1 13.0 0.00 0.00 0.00 66
20260505211334 84 205 3.5 7.8 0.00 0.00 0.00 66
20260505210830 84 151 4.3 9.6 0.00 0.00 0.00 66
20260505210327 85 142 7.8 13.9 0.00 0.00 0.00 65
20260505205824 84 187 5.2 7.8 0.00 0.00 0.00 65
20260505205322 84 153 5.2 11.3 0.00 0.00 0.00 66
20260505204818 84 184 7.8 9.6 0.00 0.00 0.00 65
20260505204317 84 214 7.8 11.3 0.00 0.00 0.00 66
20260505203814 84 158 2.6 12.2 0.00 0.00 0.00 65
20260505203310 84 199 7.0 13.9 0.00 0.00 0.00 65
20260505202806 83 105 3.5 9.6 0.00 0.00 0.00 67
20260505202306 84 179 4.3 12.2 0.00 0.00 0.00 66
20260505201759 83 205 2.6 8.7 0.00 0.00 0.00 69
20260505201257 83 207 7.0 9.6 0.00 0.00 0.00 68
20260505200755 83 199 5.2 7.8 0.00 0.00 0.00 68
20260505200252 83 168 7.0 9.6 0.00 0.00 0.00 67
20260505195747 83 228 5.2 11.3 0.00 0.00 0.00 66
20260505195245 83 181 6.1 9.6 0.00 0.00 0.00 67
20260505194742 83 127 6.1 9.6 0.00 0.00 0.00 68
20260505194238 82 147 2.6 8.7 0.00 0.00 0.00 68
20260505193734 82 164 0.9 7.0 0.00 0.00 0.00 69
20260505193232 82 195 7.8 9.6 0.00 0.00 0.00 68
20260505192730 83 184 5.2 12.2 0.00 0.00 0.00 69
20260505192227 82 211 3.5 12.2 0.00 0.00 0.00 69
20260505191720 83 203 9.6 12.2 0.00 0.00 0.00 67
20260505191218 82 209 3.5 7.8 0.00 0.00 0.00 70
20260505190714 82 172 5.2 13.0 0.00 0.00 0.00 69